www.pogodaiklimat.ru

Погода и климат >> Архив погоды >> Франция >> Гавр аэропорт


ПОГОДА в Гавр аэропорту

  • Прогноз погоды в Гавр аэропорту
  • Монитор погоды в Гавр аэропорту

АРХИВ ПОГОДЫ в Гавр аэропорту

Время (UTC), дата Ветер
(напр.,м/с)
 
Видим.   Явления Облачность Т
(С)
Тd
(С)
f
(%)
Тe
(С)
Тes
(С)
Комфортность P
(гПа)
Po
(гПа)
Тmin
(С)
Tmax
(С)
R
(мм)
R24
(мм)
S
(см)
16 9.06 СВ 2 35 км 10/10 2000 м
[]
+14.3 +8.3 67 +14 +14 1019.4 1008.5
17 9.06 СВ 3 60 км 10/10 2000 м
[]
+14.6 +9.0 69 +14 +14 1019.1 1008.2
18 9.06 СВ 2
{6}
50 км 10/10 1500 м
[]
+14.1 +9.9 76 +14 +14 1018.8 1007.9 +11.6 +17.0 0
19 9.06 СВ 2 24 км слаб. дождь 10/3 1380 м
[]
+13.2 +10.7 85 +13 +13 1018.8 1007.9 0.0
20 9.06 СВ 1-2
{2}
16 км слаб. дождь 10/10 1500 м
[]
+12.3 +10.9 91 +12 +12 1018.7 1007.7 0.4
21 9.06 СВ 1-1
{2}
9000 м слаб. морось 10/10 1500 м
[]
+12.0 +10.6 91 +12 +12 1019.0 1008.0 0.6 0
22 9.06 С 2-2
{2}
8000 м слаб. морось 10/10 1500 м
[]
+12.0 +11.1 94 +11 +11 1018.5 1007.5 0.2
23 9.06 С 2 6000 м слаб. дождь 10/9 360 м
[]
+12.0 +10.9 93 +11 +11 1018.9 1007.9 1
00 10.06 С 3
{7}
18 км слаб. дождь 10/10 200 м
[]
+11.5 +10.6 94 +10 +10 1018.2 1007.2 3 0
01 10.06 С 3 8000 м слаб. дождь 10/4 270 м
[]
+10.8 +9.9 94 +9 +9 1017.9 1006.9 1
02 10.06 С 3 11 км слаб. дождь 10/3 180 м
[]
+10.5 +9.7 95 +8 +8 1016.8 1005.8 1
03 10.06 С 3
{8}
19 км 10/10 100 м
[]
+10.9 +10.1 95 +9 +9 1016.2 1005.2 2 0
04 10.06 С 3-4
{4}
35 км 10/10 300 м
[]
+10.8 +9.7 93 +9 +9 1015.8 1004.8 0.2
05 10.06 С 3-5
{5}
19 км 10/10 240 м
[]
+11.3 +10.2 93 +9 +9 1015.5 1004.5 0.2
06 10.06 С 3
{9}
4100 м дождь 10/10 300 м
[]
+10.9 +10.0 94 +9 +9 1015.5 1004.5 +10.5 +14.1 0.4 0
07 10.06 С 3 9000 м слаб. дождь 10/10 150 м
[]
+11.1 +10.3 95 +9 +9 1015.4 1004.4 0.4
08 10.06 С 3 4000 м дождь 10/10 120 м
[]
+10.8 +10.2 96 +9 +9 1015.3 1004.3 0.6
09 10.06 С 4-5
{5}
7000 м слаб. дождь 10/10 100 м
[]
+10.9 +10.3 96 +8 +8 1015.1 1004.1 2 0
10 10.06 С 4 6000 м слаб. дождь 10/9 210 м
[]
+10.9 +10.1 95 +9 +9 1015.1 1004.1 0.4
11 10.06 С 3 8000 м слаб. дождь 10/10 210 м
[]
+11.5 +10.6 94 +10 +10 1014.7 1003.7 0.8
12 10.06 СЗ 3
{8}
22 км 10/10 200 м
[]
+11.7 +9.9 89 +10 +11 1014.5 1003.6 2
13 10.06 СЗ 3-4
{4}
35 км 10/10 400 м
[]
+11.7 +8.9 83 +10 +10 1014.4 1003.5 0.6
14 10.06 СЗ 3 60 км 10/6 450 м
[]
+13.6 +9.8 78 +13 +15 1014.2 1003.3 0.6
15 10.06 СЗ 3
{8}
19 км 10/10 300 м
[]
+14.1 +9.7 75 +13 +14 1013.7 1002.9 2 0
16 10.06 СЗ 2-3
{4}
40 км 8/8 420 м
[]
+13.7 +10.3 80 +13 +15 1013.7 1002.8 0.4
17 10.06 СЗ 2 30 км 9/9 400 м
[]
+13.5 +9.9 79 +13 +13 1013.4 1002.5 0.4
18 10.06 З 3
{9}
24 км 10/10 300 м
[]
+12.3 +10.0 86 +11 +11 1013.0 1002.1 +10.6 +14.4 1 0
19 10.06 З 3 40 км 10/10 420 м
[]
+12.0 +9.7 86 +11 +11 1012.8 1001.9 0.2
20 10.06 З 2 50 км 10/8 480 м
[]
+11.8 +8.8 82 +11 +11 1012.9 1002.0 0.2
21 10.06 З 2
{7}
50 км 10/10 200 м
[]
+11.1 +9.2 88 +10 +10 1013.1 1002.1 0.6
22 10.06 З 2 55 км 8/8 360 м
[]
+11.1 +8.8 86 +10 +10 1012.6 1001.7
23 10.06 ЮЗ 3 50 км н/о +11.4 +9.5 88 +10 +10 1011.9 1001.0 0.2
00 11.06 ЮЗ 2
{7}
40 км 9/9 300 м
[]
+11.1 +9.2 88 +10 +10 1011.8 1000.9 0.2 0
01 11.06 ЮЗ 2 50 км н/о +10.8 +7.8 82 +9 +9 1011.3 1000.4 0.2
02 11.06 ЮЗ 2-4
{4}
26 км 9/9 300 м
[]
+10.7 +9.1 90 +9 +9 1011.0 1000.1
03 11.06 ЮЗ 3-4
{4}
24 км 9/9 200 м
[]
+10.5 +9.1 91 +9 +9 1010.6 999.7 0.2 0
04 11.06 Ю 2-3
{4}
26 км 10/10 270 м
[]
+10.3 +9.1 92 +9 +9 1010.6 999.6
05 11.06 Ю 2-2
{3}
25 км 10/10 270 м
[]
+10.4 +9.0 91 +9 +9 1010.8 999.8 0.2
06 11.06 Ю 2
{6}
9000 м н/о +10.7 +8.6 87 +9 +9 1010.8 999.9 +9.9 +12.4 0.2 0
07 11.06 Ю 2-3
{3}
25 км н/о +12.1 +8.4 78 +12 +12 1010.5 999.6
08 11.06 Ю 2-3
{4}
21 км н/о +13.0 +8.7 75 +12 +12 1010.9 1000.0 0.2
09 11.06 Ю 2-3
{3}
20 км н/о +13.9 +6.5 61 +14 +14 1011.2 1000.4 4
10 11.06 Ю 1-2
{3}
45 км н/о +14.8 +7.6 62 +15 +15 1011.2 1000.4
11 11.06 С 1 50 км 10/6 870 м
[]
+14.0 +9.0 72 +14 +18 1011.4 1000.6
12 11.06 СВ 1
{4}
55 км 8/8 600 м
[]
+15.6 +8.3 62 +16 +28 опасность
простуды
1011.2 1000.4
13 11.06 С 2 30 км 10/9 1140 м
[]
+14.9 +10.3 74 +15 +16 1011.1 1000.3
14 11.06 С 3-4
{4}
60 км 9/9 1300 м
[]
+15.4 +10.8 74 +15 +16 1011.1 1000.3
15 11.06 С 3
{10}
50 км 9/9 1000 м
[]
+16.8 +11.3 70 +17 +18 1010.6 999.9
16 11.06 СВ 3 35 км н/о +15.5 +9.8 69 +15 +15 1010.7 999.9
17 11.06 СВ 4 8000 м слаб. дождь 9/1 1170 м
[]
+14.4 +10.4 77 +13 +15 1010.6 999.8 0.2
18 11.06 СВ 3-4
{5}
35 км н/о +14.6 +11.2 80 +14 +14 1010.7 999.9 +10.6 +17.1 0.2
19 11.06 В 2 2800 м слаб. дождь 10/9 540 м
[]
+13.3 +9.9 80 +13 +13 1011.3 1000.5 4
20 11.06 В 1-2
{4}
55 км 10/10 2000 м
[]
+11.5 +9.7 89 +11 +11 1011.5 1000.6 1
21 11.06 В 1
{3}
55 км 10/10 1500 м
[]
+11.7 +9.9 89 +11 +11 1011.6 1000.7 5
22 11.06 В 2-2
{2}
40 км 10/10 1500 м
[]
+11.6 +10.0 90 +11 +11 1011.2 1000.3 0.0
23 11.06 В 1 29 км 10/1 1320 м
[]
+11.6 +10.5 93 +11 +11 1010.7 999.8
00 12.06 В 1-2
{2}
19 км 10/10 1500 м
[]
+11.6 +10.5 93 +11 +11 1010.4 999.5 0.0
01 12.06 В 1-1
{2}
24 км 10/10 1500 м
[]
+11.6 +10.8 95 +11 +11 1009.9 999.0
02 12.06 В 1 16 км 10/8 1380 м
[]
+11.7 +10.6 93 +11 +11 1009.7 998.8
03 12.06 В 1-2
{2}
16 км 10/0 2000 м
[]
+11.6 +10.0 90 +11 +11 1009.1 998.2
04 12.06 В 1-1
{2}
4800 м дымка н/о +10.6 +9.7 94 +10 +10 1009.2 998.3
05 12.06 В 1-1
{2}
8000 м н/о +10.6 +10.0 96 +10 +10 1009.3 998.4
06 12.06 В 1
{3}
14 км н/о +12.5 +10.6 88 +12 +12 1009.0 998.1 +10.4 +15.2
07 12.06 ЮВ 2-3
{3}
15 км н/о +13.4 +10.0 80 +13 +13 1008.9 998.1
08 12.06 В 2-2
{3}
15 км н/о +14.8 +10.6 76 +15 +15 1008.8 998.0
09 12.06 В 2
{6}
45 км н/о +14.9 +9.5 70 +15 +15 1008.7 997.9
10 12.06 ЮВ 3 40 км н/о +15.6 +9.3 66 +15 +15 1008.5 997.8
11 12.06 ЮВ 2-3
{4}
30 км 8/8 700 м
[]
+16.0 +9.6 66 +16 +20 1008.6 997.9
12 12.06 В 2
{6}
29 км 9/9 600 м
[]
+15.4 +9.3 67 +15 +21 1008.5 997.8
13 12.06 С 2 28 км 10/5 480 м
[]
+15.0 +11.6 80 +15 +19 1008.2 997.5
14 12.06 СЗ 3-3
{4}
30 км н/о +15.2 +10.6 74 +15 +15 1008.1 997.4
15 12.06 СВ 2-3
{3}
7000 м слаб. дождь 10/10 1000 м
[]
+15.1 +11.5 79 +15 +20 1007.9 997.2 0.6
16 12.06 СВ 3 21 км 9/6 400 м
[]
+15.1 +11.1 77 +15 +16 1007.9 997.2 0.0
17 12.06 СВ 1-1
{3}
55 км 10/10 1170 м
[]
+12.8 +10.7 87 +14 +14 1007.9 997.1 7
18 12.06 В 2
{4}
35 км 10/10 1000 м
[]
+13.8 +11.3 85 +14 +14 1008.2 997.4 +11.9 +16.4 7
19 12.06 ЮВ 1-1
{2}
40 км 10/1 1260 м
[]
+13.4 +10.7 84 +14 +15 1008.2 997.4
20 12.06 З 2-2
{3}
45 км н/о +12.5 +10.2 86 +12 +12 1008.4 997.6
21 12.06 ЮЗ 1-2
{2}
50 км 10/10 1500 м
[]
+12.8 +10.3 85 +13 +13 1008.9 998.1
22 12.06 ЮЗ 2 55 км 10/5 270 м
[]
+12.8 +11.0 89 +12 +12 1009.2 998.4
23 12.06 ЮЗ 3-4
{4}
55 км 10/9 360 м
[]
+12.4 +10.1 86 +11 +11 1009.2 998.3
00 13.06 ЮЗ 5
{9}
40 км 10/10 200 м
[]
+12.4 +10.8 90 +10 +10 1009.0 998.1
01 13.06 ЮЗ 3 40 км 10/10 270 м
[]
+12.1 +10.7 91 +11 +11 1008.9 998.0
02 13.06 ЮЗ 3-4
{5}
30 км 10/10 270 м
[]
+12.0 +10.4 90 +11 +11 1008.9 998.0
03 13.06 ЮЗ 3-5
{6}
12 км 10/10 300 м
[]
+11.9 +10.1 89 +10 +10 1008.7 997.8
04 13.06 ЮЗ 3 24 км 10/9 300 м
[]
+12.0 +10.2 89 +11 +11 1008.8 997.9
05 13.06 Ю 2-3
{5}
30 км 10/10 330 м
[]
+12.0 +10.1 88 +11 +11 1009.0 998.1
06 13.06 Ю 3
{9}
14 км 9/9 200 м
[]
+12.2 +9.9 86 +11 +11 1009.1 998.2 +11.8 +13.7
07 13.06 ЮЗ 3-4
{5}
22 км 10/10 360 м
[]
+12.6 +10.0 84 +11 +11 1009.2 998.3
08 13.06 Ю 3-5
{5}
17 км 10/10 360 м
[]
+13.0 +10.2 83 +12 +12 1009.2 998.4
09 13.06 ЮЗ 3
{10}
40 км 10/10 300 м
[]
+14.0 +10.6 80 +13 +14 1009.1 998.3
10 13.06 ЮЗ 4-6
{6}
25 км 10/10 480 м
[]
+13.4 +10.6 83 +12 +12 1009.4 998.6 0.2
11 13.06 ЮЗ 3 25 км 10/1 450 м
[]
+13.3 +10.8 85 +12 +19 1009.4 998.6 0.6
12 13.06 ЮЗ 3
{12}
17 км 8/8 1000 м
[]
+15.1 +10.3 73 +14 +21 1009.4 998.6 0.8
13 13.06 ЮЗ 3 8000 м 8/1 700 м
[]
+14.7 +11.5 81 +14 +23 1009.5 998.7 0.4
14 13.06 ЮЗ 3 19 км 9/6 1050 м
[]
+15.0 +9.8 71 +14 +17 1009.6 998.8
15 13.06 ЮЗ 3-4
{6}
35 км 10/10 1500 м
[]
+15.2 +10.4 73 +15 +15 1009.8 999.0 0.4
16 13.06 З 2 30 км 10/6 930 м
[]
+15.0 +11.0 77 +15 +16 1009.8 999.0 0.0
17 13.06 ЮЗ 3 22 км 9/1 1380 м
[]
+15.5 +10.3 71 +15 +17 1009.7 999.0
18 13.06 З 2
{8}
45 км 10/10 1000 м
[]
+15.1 +11.1 77 +15 +15 1010.3 999.5 +12.1 +16.1 0.0
19 13.06 З 2-2
{3}
55 км 10/10 1500 м
[]
+14.7 +10.7 77 +15 +15 1010.7 999.9
20 13.06 ЮЗ 2 55 км 8/1 1440 м
[]
+14.5 +10.3 76 +14 +14 1011.0 1000.2
21 13.06 З 1-2
{3}
40 км 8/8 1000 м
[]
+13.3 +10.5 83 +13 +13 1011.4 1000.6
22 13.06 З 1-1
{2}
35 км н/о +12.1 +10.2 88 +12 +12 1011.7 1000.8
23 13.06 Ю 1-1
{1}
25 км н/о +12.1 +10.0 87 +13 +13 1011.8 1000.9
00 14.06 ЮЗ 2-2
{2}
50 км н/о +13.0 +10.2 83 +13 +13 1011.6 1000.7
01 14.06 ЮЗ 2-3
{3}
55 км н/о +13.1 +9.7 80 +12 +12 1011.6 1000.7
02 14.06 ЮЗ 3-4
{4}
55 км н/о +12.6 +9.2 80 +11 +11 1011.8 1000.9
03 14.06 ЮЗ 2-3
{4}
40 км н/о +12.1 +9.3 83 +11 +11 1011.8 1000.9
04 14.06 Ю 2-3
{4}
50 км н/о +11.8 +9.2 84 +11 +11 1012.0 1001.1
05 14.06 Ю 2-3
{3}
40 км н/о +12.0 +9.4 84 +11 +11 1012.1 1001.2
06 14.06 ЮЗ 3
{8}
35 км н/о +12.9 +9.3 79 +12 +12 1012.4 1001.5 +11.6 +15.2
07 14.06 ЮЗ 3-4
{5}
24 км н/о +13.5 +10.1 80 +13 +13 1012.9 1002.0
08 14.06 ЮЗ 3-4
{5}
18 км н/о +14.2 +9.8 75 +13 +13 1013.2 1002.4
09 14.06 ЮЗ 3-4
{5}
15 км н/о +15.3 +10.1 71 +15 +15 1013.1 1002.3
10 14.06 ЮЗ 3-5
{5}
12 км н/о +16.8 +9.5 62 +17 +17 1013.1 1002.4
11 14.06 ЮЗ 3-4
{5}
11 км н/о +17.5 +8.4 55 +18 +18 1013.4 1002.7
12 14.06 ЮЗ 2-4
{4}
10 км н/о +18.6 +8.3 51 +20 +20 1013.4 1002.7
13 14.06 ЮЗ 2-4
{4}
12 км н/о +19.1 +8.4 50 +20 +20 1013.2 1002.5
14 14.06 З 2-3
{4}
17 км н/о +19.6 +9.2 51 +21 +21 комфорт 1012.6 1002.0
15 14.06 З 2-3
{4}
45 км н/о +19.8 +8.5 48 +22 +22 комфорт 1012.1 1001.5
16 14.06 СЗ 1-2
{2}
60 км н/о +19.5 +9.7 53 +22 +22 комфорт 1011.9 1001.3
17 14.06 С 2-2
{3}
55 км н/о +18.7 +9.5 55 +20 +20 1011.7 1001.0
18 14.06 С 3-4
{4}
35 км н/о +16.6 +10.2 66 +17 +17 1012.0 1001.3 +12.8 +20.2
19 14.06 С 2-3
{4}
50 км н/о +15.7 +10.5 71 +16 +16 1012.4 1001.6
20 14.06 СВ 2-3
{3}
45 км 8/8 1500 м
[]
+14.2 +9.4 73 +14 +14 1012.6 1001.8
21 14.06 СВ 2-3
{3}
20 км 9/0 2000 м
[]
+13.8 +9.2 74 +13 +13 1013.1 1002.2
22 14.06 СВ 1-2
{3}
45 км 10/10 1500 м
[]
+13.3 +9.2 76 +14 +14 1012.9 1002.0
23 14.06 В 2-3
{3}
45 км 10/10 1500 м
[]
+14.8 +8.3 65 +15 +15 1013.0 1002.2
00 15.06 В 1-1
{3}
50 км 10/0
[]
+13.9 +8.5 70 +15 +15 1012.9 1002.1
01 15.06 ЮВ 1 45 км 10/3 1440 м
[]
+13.9 +8.7 71 +15 +15 1012.9 1002.1
02 15.06 штиль 0-1
{2}
35 км 10/5 1300 м
[]
+13.3 +10.5 83 +13 +13 1013.2 1002.3
03 15.06 ЮЗ 1-1
{1}
40 км н/о +12.8 +10.3 85 +14 +14 1013.3 1002.4
04 15.06 ЮЗ 1-2
{2}
26 км н/о +11.8 +10.0 89 +12 +12 1013.4 1002.5
05 15.06 ЮЗ 2-3
{3}
22 км н/о +13.5 +11.7 89 +13 +13 1013.7 1002.8
06 15.06 ЮЗ 2
{6}
55 км н/о +14.3 +10.7 79 +14 +14 1014.2 1003.4 +11.8 +16.6
07 15.06 ЮЗ 3-4
{4}
40 км н/о +14.5 +10.5 77 +14 +14 1014.6 1003.8
08 15.06 ЮЗ 2-4
{4}
30 км 10/10 2000 м
[]
+15.5 +10.9 74 +15 +15 1014.8 1004.0
09 15.06 ЮЗ 3-4
{4}
19 км 8/8 300 м
[]
+16.2 +10.5 69 +16 +22 1015.1 1004.3
10 15.06 ЮЗ 3-4
{4}
19 км 9/9 2000 м
[]
+16.9 +10.7 67 +17 +18 1015.4 1004.6
11 15.06 ЮЗ 2-3
{4}
35 км 9/9 2000 м
[]
+17.7 +10.6 63 +18 +20 1015.3 1004.6
12 15.06 ЮЗ 2-4
{4}
35 км 10/10 1500 м
[]
+17.8 +9.7 59 +18 +18 1015.5 1004.8
13 15.06 ЮЗ 3-4
{4}
40 км 10/10 1500 м
[]
+16.9 +10.0 64 +17 +17 1015.8 1005.0
14 15.06 Ю 3 35 км 10/10 1500 м
[]
+17.0 +8.7 58 +17 +17 1015.9 1005.1
15 15.06 Ю 2-4
{5}
40 км 10/10 1500 м
[]
+17.4 +9.8 61 +18 +18 1015.6 1004.9
16 15.06 Ю 2-5
{5}
40 км 10/8 1440 м
[]
+17.7 +10.6 63 +18 +19 1015.3 1004.6
17 15.06 ЮЗ 3 29 км 10/9 1050 м
[]
+17.3 +10.4 64 +17 +17 1015.4 1004.7
18 15.06 ЮЗ 3
{13}
19 км 10/10 300 м
[]
+15.2 +13.4 89 +15 +15 1016.1 1005.3 +14.2 +18.2 0.8
19 15.06 ЮЗ 3 24 км 9/1 660 м
[]
+15.6 +12.7 83 +15 +15 1016.1 1005.3
20 15.06 ЮЗ 3 18 км 10/9 630 м
[]
+15.1 +13.1 88 +15 +15 1016.4 1005.6 0.0
21 15.06 ЮЗ 3
{10}
35 км 9/9 300 м
[]
+15.1 +13.1 88 +15 +15 1016.8 1006.0 0.8
22 15.06 Ю 3 30 км 10/4 570 м
[]
+15.1 +12.8 86 +15 +15 1016.8 1006.0
23 15.06 ЮЗ 3-5
{6}
30 км 10/10 600 м
[]
+14.9 +13.1 89 +14 +14 1017.0 1006.2
00 16.06 ЮЗ 3
{11}
5000 м дождь 10/10 300 м
[]
+14.5 +13.0 91 +13 +13 1017.3 1006.4 0.0
01 16.06 ЮЗ 3 5000 м слаб. морось 10/10 90 м
[]
+13.8 +13.2 96 +13 +13 1017.6 1006.7 1
02 16.06 З 4 30 км 9/9 270 м
[]
+14.2 +12.8 91 +13 +13 1018.0 1007.1 0.2
03 16.06 ЮЗ 3-4
{4}
28 км 9/9 300 м
[]
+13.8 +11.8 88 +13 +13 1018.2 1007.3 1
04 16.06 ЮЗ 3 35 км 10/9 450 м
[]
+14.2 +11.7 85 +13 +13 1018.5 1007.6
05 16.06 ЮЗ 2 35 км 10/10 540 м
[]
+14.5 +12.2 86 +14 +14 1018.7 1007.8
06 16.06 Ю 3
{8}
28 км 10/10 300 м
[]
+14.7 +12.6 87 +14 +14 1019.1 1008.2 +13.7 +16.3
07 16.06 ЮЗ 3 30 км 10/9 570 м
[]
+14.9 +12.2 84 +14 +14 1019.6 1008.7
08 16.06 ЮЗ 3 19 км н/о +16.2 +12.7 80 +16 +16 1019.9 1009.1
09 16.06 ЮЗ 3-5
{5}
17 км н/о +17.0 +12.7 76 +17 +17 1019.8 1009.0
10 16.06 ЮЗ 3 13 км 10/10 800 м
[]
+17.1 +12.2 73 +17 +17 1020.3 1009.5
11 16.06 ЮЗ 3-4
{4}
13 км н/о +18.7 +11.7 64 +20 +20 1020.1 1009.4
12 16.06 З 3-4
{4}
12 км н/о +18.9 +12.6 67 +20 +20 1020.2 1009.5
13 16.06 З 2 19 км 10/5 1020 м
[]
+18.4 +12.8 70 +19 +24 1020.4 1009.7
14 16.06 СЗ 1 29 км 10/9 800 м
[]
+17.2 +12.5 74 +18 +19 1020.6 1009.8

 

Местоположение метеостанции Гавр аэропорт (Франция): широта 49.53 долгота 0.08 высота над уровнем моря 94 м.

В архиве по умолчанию представлена погода в Гавр аэропорту за последнюю неделю. Архивные данные за месяц целиком и за предыдущие месяцы, начиная с января 2011 года, Вы можете получить, выбрав интересующий диапазон дат из раскрывающегося списка и нажав кнопку "Ввод!".


*Определитесь, кто Вы:
робот инопланетянин человек

Внимание! Время в таблицах - всемирное. Для получения местного времени необходимо прибавить поправку, которая равна 1 ч.

Смотрите также архив погоды в соседних городах и на ближайших метеорологических станциях:

Погода в Гавре (Франция) (3 км)
Погода в Довиле (Франция) (19 км)
Погода в Кане (Франция) (55 км)
Погода в Порт-ан-Бессене (Франция) (65 км)
Погода в Руанском (Франция) (81 км)
Погода в Дьеппе (Франция) (86 км)
Погода в Барфлере (Франция) (99 км)
Погода в Эврё (Франция) (101 км)
Погода в Тусю-ле-Нобле (Франция) (112 км)
Погода в Мопертю-сюр-Мере (Франция) (113 км)

Пояснения к столбцам:

Ветер - указаны скорость ветра в м/с - средняя за 10 мин, порывы в срок и между сроками (в фигурных скобках) и направление, откуда дует ветер: С - северный, СВ - северо-восточный, В - восточный, ЮВ - юго-восточный, Ю - южный, ЮЗ - юго-западный, З - западный, СЗ - северо-западный.
Видимость - горизонтальная дальность видимости в метрах или километрах. При видимости от 1 до 10 км при отсутствии осадков обычно наблюдается дымка, при ухудшении видимости до 1 км и менее - туман. В сухую погоду видимость может ухудшаться дымом, пылью или мглою.
Явления - указаны атмосферные явления, наблюдавшиеся в срок или в последний час перед сроком; фигурными скобками обозначены явления, наблюдавшиеся между сроками (за 1-3 часа до срока); квадратными скобками обозначены град или гололедные отложения с указанием их диаметра в мм.
Облачность - указаны через наклонную черту общая и нижняя облачность в баллах и высота нижней границы облаков в метрах; квадратными скобками обозначены формы облаков: Ci - перистые, Cs - перисто-слоистые, Cc - перисто-кучевые, Ac - высококучевые, As - высокослоистые, Sc - слоисто-кучевые, Ns - слоисто-дождевые, Cu - кучевые, Cb - кучево-дождевые. Подробнее классификацию облаков см. в Атласе облаков (PDF).
T - Температура воздуха - температура, измеренная на высоте 2 м над землей.
Td - Температура точки росы - температура, при понижении до которой содержащийся в воздухе водяной пар достигнет насыщения.
f - Относительная влажность воздуха - влажноcть воздуха, измеренная на высоте 2 м над землей.
Te - Эффективная температура - температура, которую ощущает одетый по сезону человек в тени. Характеристика душности погоды. При расчете учитывается влияние влажности воздуха и скорости ветра на теплоощущения человека.
Tes - Эффективная температура на солнце - температура, которую ощущает человек, с поправкой на солнечный нагрев. Характеристика знойности погоды. Зависит от высоты солнца над горизонтом, облачности и скорости ветра. Ночью, в пасмурную погоду, а также при ветре 12 м/с и более поправка равна нулю.
P - Атмосферное давление - приведенное к уровню моря атмосферное давление.
Po - Атмосферное давление - измеренное на уровне метеостанции атмосферное давление.
Tmin - Минимальная температура - минимум температуры воздуха на высоте 2 м над землей.
Tmax - Максимальная температура - максимум температуры воздуха на высоте 2 м над землей.
R - Количество осадков - Количество выпавших осадков за период времени, мм. При наведении курсора мыши на число - период времени, за который выпало указанное количество осадков.
R24 - Количество осадков - Количество выпавших осадков за 24 часа, мм.
S - Снежный покров - Высота снежного покрова, см. При наведении курсора мыши на число - состояние снежного покрова и степень покрытия местности в баллах.